Location: Acton
(51.4942°N, 0.2232°W)
Time: 19:07:22
(UTC+00:00)

Envisat - Visible Passes

Search period start: 22 January 2022 00:00
Search period end: 01 February 2022 00:00
Orbit: 764 x 766 km, 98.2° (Epoch: 22 January)

Date Brightness Start Highest point End Pass type
(mag) Time Alt. Az. Time Alt. Az. Time Alt. Az.
22 Jan 5.8 03:30:34 10° NE 03:33:10 14° E 03:35:45 10° ESE visible
22 Jan 2.9 05:07:52 10° NNE 05:12:59 84° ESE 05:18:05 10° SSW visible
22 Jan 4.3 06:47:54 10° NNW 06:51:25 19° NW 06:54:54 10° W visible
23 Jan 4.1 04:31:08 10° NNE 04:35:59 43° E 04:40:49 10° S visible
23 Jan 3.6 06:10:23 10° N 06:14:55 33° WNW 06:19:26 10° SW visible
23 Jan 6.0 17:32:53 10° WSW 17:35:40 15° W 17:38:28 10° NW visible
24 Jan 5.2 03:54:51 10° NE 03:58:48 22° E 04:02:43 10° SE visible
24 Jan 2.9 05:33:12 10° N 05:38:15 62° WNW 05:43:15 10° SSW visible
25 Jan 6.0 03:20:00 10° ENE 03:21:23 11° E 03:22:47 10° E visible
25 Jan 3.2 04:56:17 10° NNE 05:01:23 69° ESE 05:06:26 10° S visible
25 Jan 4.1 06:36:04 10° N 06:39:57 22° WNW 06:43:49 10° WSW visible
26 Jan 4.5 04:19:39 10° NNE 04:24:20 35° E 04:28:57 10° SSE visible
26 Jan 3.4 05:58:40 10° N 06:03:24 40° WNW 06:08:07 10° SW visible
26 Jan 5.8 17:20:29 10° SW 17:23:55 18° W 17:27:23 10° NW visible
27 Jan 5.5 03:43:35 10° NE 03:47:04 18° E 03:50:31 10° SE visible
27 Jan 2.8 05:21:34 10° NNE 05:26:40 76° WNW 05:31:44 10° SSW visible
27 Jan 4.5 07:02:00 10° NNW 07:04:54 15° NW 07:07:46 10° W visible
28 Jan 3.6 04:44:43 10° NNE 04:49:45 56° E 04:54:44 10° S visible
28 Jan 3.9 06:24:16 10° N 06:28:28 27° WNW 06:32:40 10° WSW visible
28 Jan 6.3 17:48:16 10° W 17:49:36 11° W 17:50:55 10° WNW visible
29 Jan 4.8 04:08:14 10° NNE 04:12:38 29° E 04:17:00 10° SSE visible
29 Jan 3.2 05:46:59 10° N 05:51:52 48° WNW 05:56:44 10° SW visible
30 Jan 5.7 03:32:29 10° NE 03:35:18 15° E 03:38:07 10° ESE visible
30 Jan 2.9 05:09:58 10° NNE 05:15:05 88° E 05:20:10 10° SSW visible
30 Jan 4.4 06:50:05 10° NNW 06:53:27 18° NW 06:56:49 10° W visible
31 Jan 4.0 04:33:11 10° NNE 04:38:06 45° E 04:42:58 10° S visible
31 Jan 3.7 06:12:31 10° N 06:16:59 32° WNW 06:21:25 10° WSW visible
31 Jan 6.0 17:35:16 10° WSW 17:37:49 14° W 17:40:23 10° NW visible
